FW0067 Weather Reports


time (UTC)temp
C
wind
direction
speed
KPH
gust
KPH
rain 1hr
cm
rain 24hr
cm
rain mn
cm
humidity
%
barometer
mb
20240613045204 8 257 0.0 0.0 0.00 0.00 0.00 74 1026.7
20240613043703 8 257 0.0 1.6 0.00 0.00 0.00 74 1026.5
20240613042704 8 257 0.0 4.8 0.00 0.00 0.00 74 1026.4
20240613042204 8 257 1.6 4.8 0.00 0.00 0.00 73 1026.4
20240613041703 8 257 0.0 3.2 0.00 0.00 0.00 73 1026.7
20240613040704 8 257 0.0 1.6 0.00 0.00 0.00 73 1027.0
20240613040204 8 257 0.0 1.6 0.00 0.00 0.00 74 1027.0
20240613035204 8 257 0.0 1.6 0.00 0.00 0.00 74 1026.6
20240613034704 8 257 0.0 4.8 0.00 0.00 0.00 74 1026.5
20240613034204 8 257 1.6 4.8 0.00 0.00 0.00 75 1026.8
20240613033704 8 257 0.0 4.8 0.00 0.00 0.00 75 1026.8
20240613032704 8 257 1.6 4.8 0.00 0.00 0.00 75 1027.2
20240613032204 8 257 1.6 4.8 0.00 0.00 0.00 76 1026.9
20240613031704 8 257 0.0 4.8 0.00 0.00 0.00 76 1026.7
20240613031204 8 257 0.0 4.8 0.00 0.00 0.00 76 1026.7
20240613030204 8 257 1.6 3.2 0.00 0.00 0.00 76 1026.8
20240613025704 8 257 0.0 3.2 0.00 0.00 0.00 76 1026.8
20240613011704 5 282 0.0 4.8 0.00 0.00 0.00 90 1028.4
20240613010704 5 282 0.0 3.2 0.00 0.00 0.00 92 1028.2
20240613010204 5 282 0.0 3.2 0.00 0.00 0.00 92 1028.2
20240613005204 4 282 1.6 3.2 0.00 0.00 0.00 92 1028.1
20240613004703 4 282 0.0 0.0 0.00 0.00 0.00 93 1028.1
20240613004204 3 282 0.0 0.0 0.00 0.00 0.00 93 1028.1
20240613003703 3 282 0.0 0.0 0.00 0.00 0.00 93 1028.1
20240613003203 3 282 0.0 0.0 0.00 0.03 0.00 93 1028.3
20240613002704 3 282 0.0 0.0 0.00 0.03 0.00 94 1028.4
20240613002204 3 282 0.0 0.0 0.00 0.03 0.00 94 1028.4
20240613001703 2 282 0.0 0.0 0.00 0.03 0.00 94 1028.5
20240613001204 2 282 0.0 1.6 0.00 0.03 0.00 95 1028.6
20240613000703 2 282 0.0 1.6 0.00 0.03 0.00 95 1028.8
20240613000204 2 282 0.0 1.6 0.00 0.03 0.00 95 1028.8
20240612234703 1 282 1.6 4.8 0.00 0.03 0.00 95 1028.3
20240612234203 1 282 0.0 4.8 0.00 0.03 0.00 95 1028.7
20240612233705 1 282 1.6 4.8 0.00 0.03 0.00 95 1028.5
20240612232704 1 282 3.2 4.8 0.00 0.03 0.00 95 1028.6
20240612231703 0 282 0.0 1.6 0.00 0.03 0.00 95 1028.8
20240612230203 0 282 0.0 0.0 0.00 0.03 0.00 95 1028.6
20240612225203 -1 282 0.0 0.0 0.00 0.03 0.03 95 1028.5
20240612224704 -1 282 0.0 0.0 0.00 0.03 0.03 95 1028.6
20240612224203 -1 282 0.0 0.0 0.00 0.03 0.03 95 1028.5
20240612223703 -1 282 0.0 0.0 0.00 0.03 0.03 95 1028.3
20240612222704 -2 282 0.0 0.0 0.00 0.03 0.03 94 1028.4
20240612222204 -2 282 0.0 0.0 0.00 0.03 0.03 95 1028.3
20240612221704 -2 282 0.0 0.0 0.00 0.03 0.03 94 1028.3
20240612221204 -2 282 0.0 0.0 0.00 0.03 0.03 95 1028.3
20240612220204 -2 282 0.0 0.0 0.00 0.03 0.03 94 1027.9
20240612215704 -2 282 0.0 0.0 0.00 0.03 0.03 94 1027.8
20240612215204 -2 282 0.0 0.0 0.00 0.03 0.03 95 1027.7
20240612214704 -2 282 0.0 0.0 0.00 0.03 0.03 94 1027.7
20240612214203 -2 282 0.0 1.6 0.00 0.03 0.03 94 1027.8
20240612213704 -2 282 0.0 1.6 0.00 0.03 0.03 94 1027.8
20240612213204 -2 282 0.0 3.2 0.00 0.03 0.03 94 1027.8
20240612212204 -2 282 0.0 1.6 0.00 0.03 0.03 95 1027.8
20240612211704 -2 282 0.0 4.8 0.00 0.03 0.03 94 1027.8
20240612211204 -2 282 1.6 4.8 0.00 0.03 0.03 94 1027.7
20240612210204 -3 282 0.0 1.6 0.00 0.03 0.03 94 1027.1
20240612205704 -3 282 0.0 0.0 0.00 0.03 0.03 94 1027.1
20240612205204 -3 282 0.0 0.0 0.00 0.03 0.03 94 1027.1
20240612204703 -2 282 0.0 0.0 0.00 0.03 0.03 94 1027.0
20240612204204 -2 282 0.0 0.0 0.00 0.03 0.03 94 1027.0
20240612203703 -3 282 0.0 0.0 0.00 0.03 0.03 94 1027.1
20240612203203 -3 282 0.0 1.6 0.00 0.03 0.03 94 1027.1
20240612202704 -3 282 0.0 1.6 0.00 0.03 0.03 94 1027.2
20240612201703 -3 282 0.0 3.2 0.00 0.03 0.03 93 1027.2
20240612201204 -3 282 1.6 3.2 0.00 0.03 0.03 93 1027.3
20240612200704 -3 282 0.0 0.0 0.00 0.03 0.03 93 1027.5
20240612200203 -3 282 0.0 0.0 0.00 0.03 0.03 94 1027.5
20240612195704 -3 282 0.0 0.0 0.00 0.03 0.03 94 1027.5
20240612195203 -3 282 0.0 0.0 0.00 0.03 0.03 94 1027.6
20240612194704 -3 282 0.0 0.0 0.00 0.03 0.03 94 1027.7
20240612194204 -3 282 0.0 0.0 0.00 0.03 0.03 94 1027.7
20240612193703 -3 282 0.0 0.0 0.00 0.03 0.03 94 1027.7
20240612193203 -3 282 0.0 0.0 0.00 0.03 0.03 93 1027.6
20240612192703 -3 282 0.0 0.0 0.00 0.03 0.03 93 1027.5
20240612192203 -3 282 0.0 0.0 0.00 0.03 0.03 93 1027.2
20240612191704 -3 282 0.0 0.0 0.00 0.03 0.03 93 1027.1
20240612191203 -3 282 0.0 1.6 0.00 0.03 0.03 94 1027.2
20240612190204 -3 282 0.0 0.0 0.00 0.03 0.03 93 1027.1
20240612185204 -3 282 0.0 1.6 0.00 0.03 0.03 94 1026.9
20240612184704 -3 282 0.0 1.6 0.00 0.03 0.03 94 1027.0
20240612184203 -3 282 0.0 1.6 0.00 0.03 0.03 93 1027.0
20240612183203 -3 282 0.0 1.6 0.00 0.03 0.03 93 1026.3
20240612182704 -3 282 0.0 1.6 0.00 0.03 0.03 93 1026.3
20240612181704 -3 282 0.0 0.0 0.00 0.03 0.03 93 1025.9
20240612181203 -3 282 0.0 0.0 0.00 0.03 0.03 93 1025.8
20240612180204 -3 282 0.0 4.8 0.00 0.03 0.03 93 1025.7
20240612174704 -2 282 0.0 3.2 0.00 0.03 0.03 93 1025.5
20240612174203 -2 282 0.0 3.2 0.00 0.03 0.03 93 1025.7
20240612173203 -2 282 0.0 4.8 0.00 0.03 0.03 93 1025.8
20240612172704 -2 282 1.6 4.8 0.00 0.03 0.03 93 1025.8
20240612172203 -2 282 1.6 4.8 0.00 0.03 0.03 93 1025.7
20240612171705 -2 282 1.6 3.2 0.00 0.03 0.03 93 1025.7
20240612171204 -2 282 1.6 3.2 0.00 0.03 0.03 93 1025.8
20240612170703 -2 282 0.0 3.2 0.00 0.03 0.03 93 1025.9
20240612170203 -2 282 0.0 3.2 0.00 0.03 0.03 92 1025.9
20240612165703 -2 282 0.0 3.2 0.00 0.03 0.03 93 1025.9
20240612164703 -2 282 1.6 4.8 0.00 0.03 0.03 93 1025.9
20240612163704 -2 282 3.2 4.8 0.00 0.03 0.03 93 1025.9
20240612163204 -2 282 0.0 3.2 0.00 0.03 0.03 92 1026.0
20240612162704 -2 282 1.6 3.2 0.00 0.03 0.03 92 1026.0
20240612162204 -2 282 1.6 3.2 0.00 0.03 0.03 92 1026.1
20240612161704 -2 282 0.0 0.0 0.00 0.03 0.03 92 1026.0
20240612161204 -2 282 0.0 4.8 0.00 0.03 0.03 92 1026.1
20240612160704 -2 282 0.0 4.8 0.00 0.03 0.03 91 1026.1
20240612160203 -2 279 4.8 4.8 0.00 0.03 0.03 92 1026.0
20240612155203 -1 255 0.0 0.0 0.00 0.03 0.03 93 1025.7
20240612154704 -2 255 0.0 3.2 0.00 0.03 0.03 92 1025.6
20240612154203 -2 255 0.0 3.2 0.00 0.03 0.03 92 1025.5
20240612153703 -2 255 1.6 3.2 0.00 0.03 0.03 92 1025.6
20240612153204 -1 255 0.0 1.6 0.00 0.03 0.03 92 1025.5
20240612152703 -2 255 0.0 0.0 0.00 0.03 0.03 92 1025.5
20240612152203 -2 255 0.0 0.0 0.00 0.03 0.03 92 1025.6
20240612151703 -2 255 0.0 0.0 0.00 0.03 0.03 91 1025.6
20240612151203 -2 255 0.0 0.0 0.00 0.03 0.03 92 1025.6
20240612150703 -1 255 0.0 0.0 0.00 0.03 0.03 92 1025.6
20240612150203 -1 255 0.0 0.0 0.00 0.03 0.03 91 1025.4
20240612145703 -1 255 0.0 1.6 0.00 0.03 0.03 91 1025.4
20240612145204 -1 255 0.0 3.2 0.00 0.03 0.03 91 1025.4
20240612144704 -1 255 1.6 4.8 0.00 0.03 0.03 91 1025.4
20240612144204 -1 255 1.6 4.8 0.00 0.03 0.03 91 1025.4
20240612143704 -1 255 0.0 0.0 0.00 0.03 0.03 91 1025.5
20240612142703 -1 255 0.0 0.0 0.00 0.03 0.03 90 1025.5
20240612142204 -1 255 0.0 0.0 0.00 0.03 0.03 90 1025.6
20240612141703 -1 255 0.0 0.0 0.00 0.03 0.03 90 1025.5
20240612141204 -1 255 0.0 0.0 0.00 0.03 0.03 90 1025.5
20240612140703 -1 255 0.0 0.0 0.00 0.03 0.03 91 1025.5
20240612140203 -1 255 0.0 0.0 0.00 0.03 0.03 90 1025.4
20240612135703 -1 255 0.0 0.0 0.00 0.03 0.03 90 1025.3
20240612135203 -1 255 0.0 0.0 0.00 0.03 0.03 90 1025.4
20240612134703 0 255 0.0 0.0 0.00 0.03 0.03 90 1025.5
20240612134203 0 255 0.0 0.0 0.00 0.03 0.03 90 1025.4
20240612133704 0 255 0.0 0.0 0.00 0.03 0.03 90 1025.4
20240612133204 -1 255 0.0 0.0 0.00 0.03 0.03 90 1025.4
20240612132703 -1 255 0.0 0.0 0.00 0.03 0.03 89 1025.3
20240612131704 0 255 0.0 0.0 0.00 0.03 0.03 89 1025.2
20240612131204 0 255 0.0 0.0 0.00 0.03 0.03 89 1025.1
20240612130703 0 255 0.0 0.0 0.00 0.03 0.03 89 1025.1
20240612130203 0 255 0.0 0.0 0.00 0.03 0.03 89 1025.1
20240612125704 0 255 0.0 0.0 0.00 0.03 0.03 89 1025.0
20240612125203 0 255 0.0 0.0 0.00 0.03 0.03 89 1025.0
20240612124704 0 255 0.0 0.0 0.00 0.03 0.03 90 1025.1
20240612124203 0 255 0.0 0.0 0.00 0.03 0.03 89 1025.0
20240612123703 0 255 0.0 0.0 0.00 0.03 0.03 89 1024.9
20240612123204 0 255 0.0 0.0 0.00 0.03 0.03 89 1024.9
20240612122703 0 255 0.0 0.0 0.00 0.03 0.03 89 1025.0
20240612122203 0 255 0.0 0.0 0.00 0.03 0.03 89 1025.1
20240612121704 0 255 0.0 0.0 0.00 0.03 0.03 88 1024.9
20240612121203 0 255 0.0 0.0 0.00 0.03 0.03 88 1024.9
20240612120704 0 255 0.0 1.6 0.00 0.03 0.03 88 1024.9
20240612120203 0 255 0.0 1.6 0.00 0.03 0.03 88 1024.9
20240612115703 0 255 0.0 0.0 0.00 0.03 0.03 88 1024.9
20240612115203 1 255 0.0 0.0 0.00 0.03 0.03 87 1024.9
20240612114704 1 255 0.0 0.0 0.00 0.03 0.03 87 1024.7
20240612114203 1 255 0.0 3.2 0.00 0.03 0.03 87 1024.7
20240612113203 1 255 1.6 3.2 0.00 0.03 0.03 85 1024.6
20240612112703 1 255 0.0 1.6 0.00 0.03 0.03 86 1024.6
20240612112204 1 255 0.0 1.6 0.00 0.03 0.03 85 1024.6
20240612111703 1 255 0.0 1.6 0.00 0.05 0.03 84 1024.6
20240612111203 2 255 0.0 1.6 0.00 0.05 0.03 84 1024.4
20240612110703 2 255 0.0 3.2 0.00 0.05 0.03 85 1024.3
20240612105703 2 255 0.0 3.2 0.00 0.05 0.03 84 1024.4
20240612105203 2 255 0.0 0.0 0.00 0.05 0.03 83 1024.3
20240612104704 2 255 0.0 0.0 0.00 0.05 0.03 83 1024.4
20240612104204 2 255 0.0 1.6 0.00 0.05 0.03 83 1024.3
20240612103704 2 255 0.0 3.2 0.00 0.05 0.03 82 1024.1
20240612103203 2 255 0.0 3.2 0.00 0.05 0.03 83 1023.9
20240612102204 2 255 0.0 0.0 0.00 0.05 0.03 83 1023.8
20240612101203 2 255 0.0 3.2 0.00 0.08 0.03 83 1023.8
20240612100703 2 255 0.0 1.6 0.00 0.08 0.03 82 1023.7
20240612100203 3 255 0.0 3.2 0.00 0.10 0.03 82 1023.4
20240612095703 3 255 0.0 3.2 0.00 0.13 0.03 82 1023.3
20240612095203 3 255 0.0 4.8 0.00 0.15 0.03 82 1023.2
20240612094203 3 255 1.6 4.8 0.00 0.20 0.03 80 1022.9
20240612093704 3 255 1.6 4.8 0.00 0.23 0.03 79 1023.0
20240612093203 3 255 1.6 4.8 0.00 0.23 0.03 79 1023.0
20240612092703 3 255 0.0 1.6 0.00 0.23 0.03 78 1023.0
20240612092204 3 255 0.0 1.6 0.00 0.23 0.03 77 1022.9
20240612090703 5 255 0.0 3.2 0.00 0.25 0.03 74 1022.5
20240612090203 5 255 0.0 3.2 0.00 0.25 0.03 74 1022.3
20240612085704 5 255 0.0 3.2 0.00 0.28 0.03 73 1022.2
20240612085204 5 255 0.0 3.2 0.00 0.28 0.03 72 1022.2
20240612084703 5 255 0.0 3.2 0.00 0.28 0.03 72 1022.1
20240612083203 6 255 0.0 1.6 0.00 0.30 0.03 70 1022.1
20240612082704 6 255 0.0 1.6 0.00 0.30 0.03 70 1021.8
20240612082203 6 255 0.0 1.6 0.00 0.30 0.03 69 1021.7
20240612081703 6 255 0.0 1.6 0.00 0.30 0.03 69 1021.7
20240612081202 6 255 0.0 1.6 0.00 0.30 0.03 69 1021.6
20240612080704 6 255 0.0 3.2 0.00 0.30 0.03 69 1021.4
20240612075203 7 261 1.6 4.8 0.00 0.30 0.03 68 1021.2
20240612074703 7 263 1.6 4.8 0.00 0.30 0.03 67 1021.0
20240612074204 7 263 1.6 4.8 0.00 0.30 0.03 67 1021.0
20240612073703 7 263 1.6 8.0 0.00 0.30 0.03 68 1020.9
20240612073204 7 263 3.2 8.0 0.00 0.30 0.03 67 1020.7
20240612072703 7 265 3.2 8.0 0.00 0.30 0.03 67 1020.5
20240612072203 8 264 3.2 8.0 0.00 0.30 0.03 66 1020.5
20240612071703 8 264 3.2 9.7 0.00 0.33 0.03 66 1020.3
20240612071203 8 264 4.8 9.7 0.00 0.33 0.03 65 1020.0
20240612070703 8 263 3.2 9.7 0.00 0.36 0.03 64 1020.0
20240612065703 9 263 1.6 9.7 0.00 0.41 0.03 61 1020.0
20240612065203 9 264 3.2 11.3 0.00 0.43 0.03 59 1019.9
20240612064203 10 258 8.0 19.3 0.00 0.43 0.03 57 1019.7
20240612063203 10 266 9.7 16.1 0.00 0.43 0.03 56 1019.4
20240612062703 10 261 8.0 16.1 0.00 0.46 0.03 57 1019.2
20240612062203 10 266 8.0 19.3 0.00 0.46 0.03 57 1019.0
20240612061203 11 264 11.3 29.0 0.00 0.48 0.03 55 1018.8
20240612060203 11 279 12.9 24.1 0.00 0.51 0.03 58 1018.6
20240612055703 11 273 14.5 24.1 0.00 0.51 0.03 59 1018.5
20240612055204 11 288 9.7 19.3 0.00 0.51 0.03 65 1018.4
20240612054705 11 297 11.3 19.3 0.00 0.51 0.03 67 1018.3
20240612053706 11 306 9.7 19.3 0.00 0.51 0.03 70 1018.1
20240612053206 11 298 8.0 19.3 0.00 0.51 0.03 70 1018.0
20240612052706 11 281 8.0 22.5 0.00 0.51 0.03 71 1017.9
20240612052206 11 289 8.0 24.1 0.00 0.51 0.03 71 1017.7
20240612051706 11 289 14.5 24.1 0.00 0.51 0.03 70 1017.6
20240612051206 11 300 14.5 24.1 0.00 0.51 0.03 70 1017.5
20240612050706 11 281 11.3 24.1 0.00 0.51 0.03 70 1017.5
20240612050206 11 293 14.5 24.1 0.00 0.51 0.03 70 1017.4
20240612045706 11 289 9.7 24.1 0.00 0.51 0.03 72 1017.3